Погода в Янгиюле

Узбекистан     41°06′47″N   69°03′17″E
темп.,
°C
ветер,
м/с
пор.,
м/с
влажн.,
%
обл.,
%
осадки,
мм/ч
давл.,
гПа
погр.,
м
20 июня, вс
вс2023:00+26ссз612252 0.0 1006298
02:00+20зсз34330 0.0 100861
05:00+18зсз12310 0.0 100920
08:00+24зюз23236 0.0 1009436
11:00+30зюз3318100 0.0 10091174
14:00+35сз54130 0.0 10062489
17:00+34сз76120 0.0 10052432
20:00+28ссз510180 0.0 1007181
21 июня, пн
пн2123:00+22ссз47240 0.0 1009118
02:00+18ссз22270 0.0 100925
05:00+15юз23290 0.0 101025
08:00+22ююз34230 0.0 1012429
11:00+29з34160 0.0 10111055
14:00+34зсз44100 0.0 10092176
17:00+35сз4590 0.0 10082652
20:00+27ссз410180 0.0 1009136
22 июня, вт
вт2223:00+23ссз23310 0.0 101021
02:00+21св22330 0.0 100912
05:00+20вюв11345 0.0 101011
08:00+27ююз11270 0.0 1011326
11:00+33з33220 0.0 10101999
14:00+36зсз55170 0.0 10083204
17:00+35сз75145 0.0 10082862
20:00+28ссз612160 0.0 1009308
23 июня, ср
ср2323:00+23с59260 0.0 1010173
02:00+19сз34330 0.0 101039
05:00+16юз22380 0.0 101114
08:00+23ююз33270 0.0 1012407
11:00+30юз33190 0.0 10111057
14:00+35з33120 0.0 10092026
17:00+36сз34100 0.0 10082570
20:00+28зсз34170 0.0 100833
24 июня, чт
чт2423:00+23ссз45220 0.0 100955
02:00+20ссв22270 0.0 100915
05:00+17ю33320 0.0 101031
08:00+23ю33260 0.0 1011361
11:00+31ю11170 0.0 1010905
14:00+37св24100 0.0 10082319
17:00+37ссз76130 0.0 10063226
20:00+30ссз48220 0.0 1006102